This is the latest recevied weather packets stored in our database for station/object SP1BMW-13. If no packets are shown the sender has not sent any weather packets the latest 10 day(s).
| Time | Temp. | Humidity | Pressure | Rain* | Wind** | Luminosity | Snow |
|---|---|---|---|---|---|---|---|
| 1787887938 | 17.78° C | 61% | 1013 hPa | 0 mm | 0.89 m/s, 104° | 0 W/m² | - |
| 1787887877 | 17.78° C | 60% | 1012.9 hPa | 0 mm | 0.45 m/s, 84° | 0 W/m² | - |
| 1787887818 | 17.78° C | 60% | 1012.9 hPa | 0 mm | 0.89 m/s, 30° | 0 W/m² | - |
| 1787887758 | 17.78° C | 60% | 1012.9 hPa | 0 mm | 0.45 m/s, 125° | 0 W/m² | - |
| 1787887699 | 17.78° C | 61% | 1012.6 hPa | 0 mm | 0.45 m/s, 104° | 0 W/m² | - |
| 1787887638 | 17.78° C | 61% | 1012.7 hPa | 0 mm | 0.89 m/s, 50° | 0 W/m² | - |
| 1787887578 | 17.78° C | 60% | 1012.9 hPa | 0 mm | 1.34 m/s, 41° | 0 W/m² | - |
| 1787887518 | 17.78° C | 61% | 1012.7 hPa | 0 mm | 0.45 m/s, 65° | 0 W/m² | - |
| 1787887458 | 17.78° C | 60% | 1013 hPa | 0 mm | 0.89 m/s, 93° | 0 W/m² | - |
| 1787887398 | 17.78° C | 61% | 1012.9 hPa | 0 mm | 1.34 m/s, 24° | 0 W/m² | - |
| 1787887338 | 17.78° C | 61% | 1013 hPa | 0 mm | 0.89 m/s, 81° | 0 W/m² | - |
| 1787887278 | 17.78° C | 61% | 1013 hPa | 0 mm | 1.34 m/s, 29° | 0 W/m² | - |
| 1787887219 | 17.78° C | 61% | 1012.9 hPa | 0 mm | 0.45 m/s, 39° | 0 W/m² | - |
| 1787887158 | 17.78° C | 61% | 1013 hPa | 0 mm | 1.34 m/s, 39° | 0 W/m² | - |
| 1787887099 | 17.78° C | 61% | 1013.1 hPa | 0 mm | 1.79 m/s, 37° | 0 W/m² | - |
| 1787887038 | 17.78° C | 61% | 1012.8 hPa | 0 mm | 0.89 m/s, 51° | 0 W/m² | - |
| 1787886978 | 17.78° C | 61% | 1013.1 hPa | 0 mm | 0.89 m/s, 318° | 0 W/m² | - |
| 1787886919 | 17.78° C | 61% | 1013.3 hPa | 0 mm | 0.89 m/s, 46° | 0 W/m² | - |
| 1787886858 | 17.78° C | 61% | 1013.3 hPa | 0 mm | 0.45 m/s, 33° | 0 W/m² | - |
| 1787886798 | 17.78° C | 61% | 1013.3 hPa | 0 mm | 3.13 m/s, 72° | 0 W/m² | - |
| 1787886738 | 17.78° C | 61% | 1013.2 hPa | 0 mm | 1.34 m/s, 71° | 0 W/m² | - |
| 1787886678 | 17.78° C | 61% | 1013.2 hPa | 0 mm | 0.45 m/s, 48° | 0 W/m² | - |
| 1787886618 | 17.78° C | 61% | 1013.2 hPa | 0 mm | 0.89 m/s, 341° | 0 W/m² | - |
| 1787886558 | 17.78° C | 61% | 1013.3 hPa | 0 mm | 0 m/s | 0 W/m² | - |
| 1787886498 | 17.78° C | 61% | 1013.3 hPa | 0 mm | 0.45 m/s, 14° | 0 W/m² | - |
* Rain latest hour (hover to see other rain measurements)
** Current wind speed in m/s (hover to see current wind gust speed)